Location: Unnamed
(25.2826°S, 57.6099°W)
Time: 15:37:25
(UTC-04:00)

Envisat - Visible Passes

Search period start: 18 January 2026 00:00
Search period end: 28 January 2026 00:00
Orbit: 761 x 763 km, 98.4° (Epoch: 18 January)

Date Brightness Start Highest point End Pass type
(mag) Time Alt. Az. Time Alt. Az. Time Alt. Az.
18 Jan 5.2 01:33:50 21° S 01:33:50 21° S 01:35:35 10° S visible
19 Jan 5.8 00:55:41 13° SE 00:55:41 13° SE 00:56:37 10° SSE visible
19 Jan 5.3 02:35:48 13° SW 02:35:48 13° SW 02:36:27 10° SSW visible
20 Jan 5.2 01:57:40 20° S 01:57:40 20° S 01:59:09 10° S visible
21 Jan 5.5 01:19:31 17° SSE 01:19:31 17° SSE 01:20:55 10° S visible
22 Jan 5.3 02:21:30 15° SSW 02:21:30 15° SSW 02:22:21 10° SSW visible
23 Jan 5.4 01:43:21 18° S 01:43:21 18° S 01:44:42 10° S visible
24 Jan 5.8 01:05:12 14° SSE 01:05:12 14° SSE 01:06:03 10° SSE visible
25 Jan 5.4 02:07:11 15° SSW 02:07:11 15° SSW 02:08:07 10° SSW visible
26 Jan 5.6 01:29:03 16° S 01:29:03 16° S 01:30:07 10° S visible
27 Jan 5.6 02:31:02 11° SSW 02:31:02 11° SSW 02:31:11 10° SSW visible
